Find Starlink 32301

NORAD ID: 61664 Int'l Des: 2024-193 Owner: SPXS Country: US Constellation: starlink operational
LEOCIRCULAR

現在のビュー

3D地球を読み込み中...

About Starlink 32301

Starlink 32301 (NORAD 61664) is a starlink constellation satellite (v2 mini) launched Oct 26, 2024 by SPXS of US. It operates in LEO, CIRCULAR orbit with a mass of 730.00 kg.

次回通過

Passes for default location (London). Set your location on the main map for personalized predictions.

高度履歴

Loading altitude history...

軌道要素

1 61664U 24193D 26264.03876835 -.00000008 00000-0 11527-4 0 9991
2 61664 53.1603 262.3464 0001435 80.5451 279.5712 15.31700693106450
Epoch: Sep 21, 2026 • Age: 14 hours

現在のステータス

高度 489.5 km
遠地点 / 近地点 N/A
速度 7.62 km/s
衛星直下点 -51.41°S, 30.16°W
打ち上げ日 Oct 26, 2024
運用期間 1.9 years
タイプ internet

技術仕様

分類 Payload
質量 730.00 kg
乾燥質量 700.00 kg
長さ 0.30 m
スパン 29.00 m
形状 ? Box + pan
製造者 SPXS
バスタイプ Starlink V2M
フェーズステータス In Orbit
所有者/国 SPXS/US

Most Searched